User: anonymous   Login
Location: Unspecified
(0.0000°N, 0.0000°E)
Time: 11:00:13
(UTC+00:00)
Language:

Alouette 1 - Orbit

View from above orbital plane
View from above orbital plane
View from above satellite
View from above satellite

Ground track
Ground track

The orbit data is extracted from the following two-line orbital elements,

1 00424U 62049A   15114.15752170  .00000115  00000-0  12329-3 0  9998
2 00424 080.4662 323.2543 0022601 300.4337 199.5674 13.69006694624053
Epoch (UTC): 24 April 2015 03:46:49
Eccentricity: 0.0022601
inclination: 80.4662°
perigee height: 986 km
apogee height: 1020 km
right ascension of ascending node: 323.2543°
argument of perigee: 300.4337°
revolutions per day: 13.69006694
mean anomaly at epoch: 199.5674°
orbit number at epoch: 62405

The dashed part of the orbit path shows where the satellite is in the earth's shadow,  

DLR